Washington, MO

6:50 AM CDT on July 25, 2017 (GMT -0500)
Washington

Weather History for KFYG - October, 2012

Change the Weather History Date:

Saturday, October 27, 2012

  Actual Average (KSUS) Record (KSUS)
Temperature  
Mean Temperature 41 °F -  
Max Temperature 50 °F 63 °F 82 °F (2014)
Min Temperature 32 °F 41 °F 27 °F (2013)
Degree Days  
Heating Degree Days 24    
Moisture  
Dew Point 29 °F    
Average Humidity 65    
Maximum Humidity 87    
Minimum Humidity 43    
Precipitation  
Precipitation 0.00 in - - ()
Sea Level Pressure  
Sea Level Pressure 30.28 in    
Wind  
Wind Speed 2 mph ()    
Max Wind Speed 12 mph    
Max Gust Speed 17 mph    
Visibility 10.0 miles    
Events      
Averages and records for this station are not official NWS values.
T = Trace of Precipitation, MM = Missing Value Source: Averaged Metar Reports

Daily Weather History Graph

Daily Weather History Graph

Search for Another Location

Airport or City:

Trip Planner

Search our weather history database for the weather conditions in past years. The results will help you decide how hot, cold, wet, or windy it might be!

Date:

Astronomy

Oct. 27, 2012 Rise Set
Actual Time 7:25 AM CDT 6:09 PM CDT
Civil Twilight 6:58 AM CDT 6:36 PM CDT
Nautical Twilight 6:27 AM CDT 7:07 PM CDT
Astronomical Twilight 5:56 AM CDT 7:38 PM CDT
Moon 4:54 PM CDT (10/27) 5:22 AM CDT (10/27)
Length of Visible Light 11h 37m
Length of Day
10h 43m
Waxing Gibbous, 96% of the Moon is Illuminated
Oct 27
Waxing Gibbous
Oct 29
Full
Nov 6
Last Quarter
Nov 13
New
Nov 20
First Quarter

Hourly Weather History & Observations

Time (CDT) Temp. Windchill Dew Point Humidity Pressure Visibility Wind Dir Wind Speed Gust Speed Precip Events Conditions
12:15 AM 37.4 °F - 28.4 °F 70% 30.33 in 10.0 mi Calm Calm - N/A   Clear
12:35 AM 37.4 °F - 28.4 °F 70% 30.33 in 9.0 mi Calm Calm - N/A   Clear
12:55 AM 37.4 °F - 28.4 °F 70% 30.32 in 10.0 mi Calm Calm - N/A   Clear
1:15 AM 35.6 °F - 28.4 °F 75% 30.33 in 10.0 mi Calm Calm - N/A   Clear
1:35 AM 35.6 °F - 28.4 °F 75% 30.33 in 10.0 mi Calm Calm - N/A   Clear
1:55 AM 35.6 °F - 28.4 °F 75% 30.32 in 10.0 mi Calm Calm - N/A   Clear
2:15 AM 35.6 °F - 28.4 °F 75% 30.31 in 10.0 mi Calm Calm - N/A   Clear
2:55 AM 35.6 °F - 28.4 °F 75% 30.31 in 10.0 mi Calm Calm - N/A   Clear
3:15 AM 35.6 °F - 28.4 °F 75% 30.30 in 10.0 mi Calm Calm - N/A   Clear
3:35 AM 35.6 °F 31.7 °F 28.4 °F 75% 30.30 in 10.0 mi North 4.6 mph - N/A   Clear
3:55 AM 35.6 °F - 28.4 °F 75% 30.29 in 10.0 mi Calm Calm - N/A   Clear
4:15 AM 35.6 °F - 28.4 °F 75% 30.29 in 10.0 mi Calm Calm - N/A   Clear
4:35 AM 35.6 °F 29.9 °F 28.4 °F 75% 30.29 in 10.0 mi NNW 6.9 mph - N/A   Clear
4:55 AM 35.6 °F 31.7 °F 28.4 °F 75% 30.30 in 10.0 mi NNW 4.6 mph - N/A   Clear
5:15 AM 35.6 °F - 28.4 °F 75% 30.31 in 10.0 mi Calm Calm - N/A   Clear
5:35 AM 33.8 °F 28.6 °F 28.4 °F 81% 30.32 in 10.0 mi NNW 5.8 mph - N/A   Clear
5:55 AM 33.8 °F - 28.4 °F 81% 30.32 in 10.0 mi Calm Calm - N/A   Clear
6:15 AM 33.8 °F - 26.6 °F 75% 30.32 in 10.0 mi Calm Calm - N/A   Clear
6:35 AM 32.0 °F - 28.4 °F 87% 30.32 in 10.0 mi Calm Calm - N/A   Clear
6:55 AM 32.0 °F - 28.4 °F 87% 30.32 in 10.0 mi Calm Calm - N/A   Clear
7:15 AM 32.0 °F - 26.6 °F 80% 30.31 in 10.0 mi Calm Calm - N/A   Clear
7:35 AM 32.0 °F - 26.6 °F 80% 30.32 in 10.0 mi Calm Calm - N/A   Clear
7:55 AM 32.0 °F - 28.4 °F 87% 30.33 in 10.0 mi Calm Calm - N/A   Clear
8:15 AM 32.0 °F - 28.4 °F 87% 30.34 in 10.0 mi Calm Calm - N/A   Clear
8:35 AM 33.8 °F 27.7 °F 28.4 °F 81% 30.34 in 10.0 mi NNW 6.9 mph - N/A   Clear
8:55 AM 35.6 °F 29.2 °F 28.4 °F 75% 30.34 in 10.0 mi North 8.1 mph - N/A   Clear
9:35 AM 37.4 °F 31.4 °F 28.4 °F 70% 30.34 in 10.0 mi North 8.1 mph - N/A   Clear
10:15 AM 39.2 °F 33.6 °F 28.4 °F 65% 30.34 in 10.0 mi North 8.1 mph - N/A   Clear
10:35 AM 41.0 °F - 28.4 °F 61% 30.33 in 10.0 mi Calm Calm - N/A   Clear
10:55 AM 41.0 °F 37.1 °F 28.4 °F 61% 30.33 in 10.0 mi North 5.8 mph - N/A   Clear
11:15 AM 42.8 °F 39.3 °F 28.4 °F 57% 30.33 in 10.0 mi NE 5.8 mph - N/A   Clear
11:35 AM 44.6 °F 39.7 °F 30.2 °F 57% 30.32 in 10.0 mi NNW 9.2 mph - N/A   Clear
11:55 AM 44.6 °F 41.4 °F 32.0 °F 61% 30.32 in 10.0 mi North 5.8 mph - N/A   Clear
12:15 PM 44.6 °F - 28.4 °F 53% 30.31 in 10.0 mi Calm Calm - N/A   Clear
12:35 PM 46.4 °F 42.9 °F 30.2 °F 53% 30.30 in 10.0 mi NE 6.9 mph - N/A   Clear
12:55 PM 46.4 °F 42.9 °F 28.4 °F 50% 30.28 in 10.0 mi North 6.9 mph - N/A   Clear
1:15 PM 46.4 °F 43.5 °F 28.4 °F 50% 30.28 in 10.0 mi NW 5.8 mph - N/A   Clear
1:35 PM 46.4 °F 41.9 °F 28.4 °F 50% 30.27 in 10.0 mi NW 9.2 mph - N/A   Clear
1:55 PM 48.2 °F - 28.4 °F 46% 30.26 in 10.0 mi NNW 5.8 mph - N/A   Clear
2:15 PM 48.2 °F - 28.4 °F 46% 30.25 in 10.0 mi NNW 8.1 mph - N/A   Clear
2:35 PM 48.2 °F - 26.6 °F 43% 30.24 in 10.0 mi NNE 8.1 mph - N/A   Clear
2:55 PM 48.2 °F - 28.4 °F 46% 30.23 in 10.0 mi NE 6.9 mph - N/A   Clear
3:15 PM 48.2 °F - 28.4 °F 46% 30.23 in 10.0 mi NNW 5.8 mph - N/A   Clear
3:35 PM 48.2 °F - 28.4 °F 46% 30.22 in 10.0 mi North 11.5 mph 17.3 mph N/A   Clear
3:55 PM 50.0 °F - 28.4 °F 43% 30.23 in 10.0 mi NNW 11.5 mph - N/A   Clear
4:15 PM 48.2 °F - 26.6 °F 43% 30.23 in 10.0 mi North 5.8 mph - N/A   Clear
4:35 PM 48.2 °F - 28.4 °F 46% 30.23 in 10.0 mi North 5.8 mph - N/A   Clear
4:55 PM 48.2 °F - 28.4 °F 46% 30.23 in 10.0 mi North 6.9 mph - N/A   Clear
5:15 PM 48.2 °F - 28.4 °F 46% 30.23 in 10.0 mi North 8.1 mph - N/A   Clear
5:35 PM 48.2 °F - 28.4 °F 46% 30.23 in 10.0 mi North 5.8 mph - N/A   Clear
5:55 PM 48.2 °F - 28.4 °F 46% 30.23 in 10.0 mi North 8.1 mph - N/A   Clear
6:15 PM 46.4 °F 42.4 °F 28.4 °F 50% 30.23 in 10.0 mi North 8.1 mph - N/A   Clear
6:35 PM 46.4 °F 42.9 °F 28.4 °F 50% 30.23 in 10.0 mi North 6.9 mph - N/A   Clear
6:55 PM 44.6 °F 41.4 °F 28.4 °F 53% 30.24 in 10.0 mi North 5.8 mph - N/A   Clear
7:15 PM 44.6 °F - 30.2 °F 57% 30.24 in 10.0 mi Calm Calm - N/A   Clear
7:35 PM 42.8 °F - 30.2 °F 61% 30.24 in 10.0 mi Calm Calm - N/A   Clear
7:55 PM 41.0 °F - 28.4 °F 61% 30.24 in 10.0 mi Calm Calm - N/A   Clear
8:15 PM 41.0 °F - 30.2 °F 65% 30.24 in 10.0 mi Calm Calm - N/A   Clear
8:35 PM 39.2 °F - 30.2 °F 70% 30.24 in 10.0 mi Calm Calm - N/A   Clear
8:55 PM 39.2 °F - 30.2 °F 70% 30.25 in 10.0 mi Calm Calm - N/A   Clear
9:15 PM 37.4 °F - 30.2 °F 75% 30.25 in 10.0 mi Calm Calm - N/A   Clear
9:35 PM 37.4 °F - 28.4 °F 70% 30.26 in 10.0 mi Calm Calm - N/A   Clear
9:55 PM 39.2 °F - 28.4 °F 65% 30.26 in 10.0 mi Calm Calm - N/A   Clear
10:15 PM 37.4 °F - 30.2 °F 75% 30.26 in 10.0 mi Calm Calm - N/A   Partly Cloudy
10:35 PM 37.4 °F - 30.2 °F 75% 30.26 in 10.0 mi Calm Calm - N/A   Clear
10:55 PM 35.6 °F - 28.4 °F 75% 30.26 in 10.0 mi Calm Calm - N/A   Partly Cloudy
11:15 PM 35.6 °F - 30.2 °F 81% 30.27 in 10.0 mi Calm Calm - N/A   Partly Cloudy
11:35 PM 33.8 °F - 30.2 °F 87% 30.27 in 10.0 mi Calm Calm - N/A   Clear
11:55 PM 33.8 °F - 28.4 °F 81% 30.27 in 10.0 mi Calm Calm - N/A   Clear